Quillayute, WA

8:10 AM PDT on May 24, 2017 (GMT -0700)
Quillayute

Weather History for KUIL - August, 2012

Change the Weather History Date:

Monday, August 6, 2012

  Actual Average Record
Temperature  
Mean Temperature 62 °F 60 °F  
Max Temperature 64 °F 69 °F 90 °F (1972)
Min Temperature 59 °F 51 °F 42 °F (1974)
Degree Days  
Heating Degree Days 3 5  
Month to date heating degree days 30  
Since 1 June heating degree days 518  
Since 1 July heating degree days 224  
Cooling Degree Days 0 0  
Month to date cooling degree days 0  
Year to date cooling degree days 11  
Since 1 June cooling degree days 10  
Growing Degree Days 11 (Base 50)    
Moisture  
Dew Point 57 °F    
Average Humidity 87    
Maximum Humidity 100    
Minimum Humidity 75    
Precipitation  
Precipitation T in 0.06 in 4.22 in (1995)
Month to date precipitation 0.35  
Year to date precipitation 54.58  
Sea Level Pressure  
Sea Level Pressure 30.09 in    
Wind  
Wind Speed 4 mph (South)    
Max Wind Speed 12 mph    
Max Gust Speed 17 mph    
Visibility 9 miles    
Events      
T = Trace of Precipitation, MM = Missing Value Source: NWS Daily Summary

Daily Weather History Graph

Daily Weather History Graph

Search for Another Location

Airport or City:

Trip Planner

Search our weather history database for the weather conditions in past years. The results will help you decide how hot, cold, wet, or windy it might be!

Date:

Astronomy

Aug. 06, 2012 Rise Set
Actual Time 6:01 AM PDT 8:45 PM PDT
Civil Twilight 5:26 AM PDT 9:20 PM PDT
Nautical Twilight 4:41 AM PDT 10:05 PM PDT
Astronomical Twilight 3:47 AM PDT 10:58 PM PDT
Moon 10:26 PM PDT (8/6) 11:25 AM PDT (8/6)
Length of Visible Light 15h 54m
Length of Day
14h 43m
Waning Gibbous, 77% of the Moon is Illuminated
Aug 6
Waning Gibbous
Aug 9
Last Quarter
Aug 17
New
Aug 24
First Quarter
Aug 31
Full

Hourly Weather History & Observations

Time (PDT) Temp. Dew Point Humidity Pressure Visibility Wind Dir Wind Speed Gust Speed Precip Events Conditions
12:20 AM 57.2 °F 57.2 °F 100% 30.03 in 2.5 mi SSE 8.1 mph - N/A   Overcast
12:40 AM 59.0 °F 57.2 °F 94% 30.03 in 3.0 mi Variable 4.6 mph - N/A   Overcast
12:53 AM 59.0 °F 57.0 °F 93% 30.04 in 3.0 mi Variable 3.5 mph - N/A   Overcast
1:53 AM 60.1 °F 57.0 °F 90% 30.04 in 7.0 mi SSE 5.8 mph - N/A   Overcast
2:21 AM 60.8 °F 57.2 °F 88% 30.04 in 8.0 mi SSE 4.6 mph - N/A   Overcast
2:53 AM 60.1 °F 57.0 °F 90% 30.03 in 10.0 mi SE 5.8 mph - N/A   Overcast
3:32 AM 60.8 °F 57.2 °F 88% 30.03 in 10.0 mi SE 4.6 mph - N/A   Overcast
3:53 AM 60.1 °F 57.0 °F 90% 30.04 in 10.0 mi SSE 5.8 mph - N/A   Overcast
4:53 AM 60.1 °F 55.9 °F 86% 30.04 in 10.0 mi Calm Calm - N/A   Overcast
5:34 AM 60.8 °F 55.4 °F 82% 30.04 in 10.0 mi Calm Calm - N/A   Overcast
5:53 AM 60.1 °F 55.9 °F 86% 30.05 in 10.0 mi Variable 3.5 mph - N/A   Overcast
6:38 AM 60.8 °F 55.4 °F 82% 30.05 in 10.0 mi Variable 3.5 mph - N/A   Overcast
6:53 AM 60.1 °F 55.9 °F 86% 30.06 in 10.0 mi Variable 3.5 mph - N/A   Overcast
7:16 AM 60.8 °F 57.2 °F 88% 30.06 in 10.0 mi Variable 3.5 mph - N/A   Overcast
7:53 AM 61.0 °F 57.0 °F 87% 30.07 in 10.0 mi SSE 5.8 mph - N/A   Overcast
8:53 AM 62.1 °F 57.9 °F 86% 30.09 in 10.0 mi Variable 4.6 mph - N/A   Overcast
9:53 AM 62.1 °F 57.0 °F 84% 30.09 in 10.0 mi Variable 4.6 mph - N/A   Overcast
10:30 AM 62.6 °F 57.2 °F 82% 30.09 in 10.0 mi SSW 6.9 mph - N/A   Overcast
10:50 AM 62.6 °F 57.2 °F 82% 30.09 in 10.0 mi Variable 6.9 mph - N/A   Overcast
10:53 AM 62.1 °F 57.0 °F 84% 30.09 in 10.0 mi Variable 6.9 mph - N/A   Overcast
11:46 AM 60.8 °F 57.2 °F 88% 30.10 in 10.0 mi SE 5.8 mph - 0.00 in   Overcast
11:53 AM 61.0 °F 57.9 °F 90% 30.12 in 10.0 mi SSE 5.8 mph - 0.00 in   Overcast
12:38 PM 62.6 °F 57.2 °F 82% 30.12 in 10.0 mi SE 5.8 mph - N/A   Overcast
12:53 PM 62.1 °F 57.9 °F 86% 30.12 in 10.0 mi Variable 6.9 mph - N/A   Overcast
1:53 PM 62.1 °F 59.0 °F 90% 30.13 in 4.0 mi South 5.8 mph - N/A   Overcast
2:53 PM 62.1 °F 57.9 °F 86% 30.14 in 5.0 mi South 8.1 mph - N/A   Overcast
3:53 PM 62.1 °F 57.9 °F 86% 30.14 in 10.0 mi Variable 4.6 mph - N/A   Overcast
4:53 PM 63.0 °F 57.0 °F 81% 30.14 in 10.0 mi SSW 4.6 mph - N/A   Overcast
5:30 PM 62.6 °F 57.2 °F 82% 30.13 in 10.0 mi SW 5.8 mph - N/A   Overcast
5:53 PM 63.0 °F 57.0 °F 81% 30.13 in 10.0 mi SW 4.6 mph - N/A   Overcast
6:15 PM 62.6 °F 57.2 °F 82% 30.12 in 10.0 mi SSW 5.8 mph - N/A   Overcast
6:53 PM 63.0 °F 57.0 °F 81% 30.11 in 10.0 mi Calm Calm - N/A   Overcast
7:53 PM 61.0 °F 57.0 °F 87% 30.11 in 10.0 mi SW 4.6 mph - N/A   Overcast
8:37 PM 60.8 °F 57.2 °F 88% 30.10 in 10.0 mi Calm Calm - N/A   Overcast
8:50 PM 60.8 °F 57.2 °F 88% 30.10 in 10.0 mi South 3.5 mph - N/A   Overcast
8:53 PM 60.1 °F 57.0 °F 90% 30.10 in 10.0 mi South 4.6 mph - N/A   Overcast
9:49 PM 60.8 °F 57.2 °F 88% 30.11 in 10.0 mi Calm Calm - N/A   Overcast
9:53 PM 60.1 °F 57.0 °F 90% 30.11 in 10.0 mi South 3.5 mph - N/A   Overcast
10:09 PM 59.0 °F 57.2 °F 94% 30.11 in 10.0 mi Calm Calm - N/A   Overcast
10:37 PM 59.0 °F 57.2 °F 94% 30.11 in 10.0 mi Calm Calm - N/A   Overcast
10:53 PM 59.0 °F 57.0 °F 93% 30.11 in 10.0 mi Calm Calm - N/A   Overcast
11:53 PM 59.0 °F 57.0 °F 93% 30.12 in 10.0 mi Calm Calm - N/A   Overcast